Preview of NWS' New Version of Forecast
This preview is not operational and should not be used for support decisions.

Regional Weather Roundup (RWR)

Issued by National Weather Service (NWS)

                            
475 
ASPQ40 PGUM 212310
RWRPQ 
WEATHER ROUNDUP FOR THE MARIANAS AND MICRONESIA
NATIONAL WEATHER SERVICE TIYAN GU
900 AM CHST FRI JUN 22 2018

GUZ001>004-220000-
MARIANA ISLANDS-
  
CITY           SKY/WX    TMP DP  RH WIND       PRES   REMARKS
GUAM AIRPORT   MOSUNNY   84  79  84 E15       29.95R HX  96           
ANDERSEN AFB   PTSUNNY   84  73  70 E10       29.97R HX  91           
ROTA AIRPORT   PTSUNNY   82  73  74 E14       29.95R                  
TINIAN AP      MOSUNNY   82  79  89 E12       29.93S HX  93           
SAIPAN AP      MOSUNNY   86  79  79 E14       29.94S HX  99           

$$

PMZ161-220000-
REPUBLIC OF PALAU-
  
CITY           SKY/WX    TMP DP  RH WIND       PRES   REMARKS
KOROR AP       PTSUNNY   82  75  78 SE3       29.87S                  
KOROR WSO      CLOUDY    81  77  89 CALM      29.89R                  

$$

PMZ171>174-220000-
FEDERATED STATES OF MICRONESIA-
  
CITY           SKY/WX    TMP DP  RH WIND       PRES   REMARKS
YAP AIRPORT    CLOUDY    82  79  89 CALM      29.90R HX  93           
CHUUK AP       CLOUDY    82  79  89 NE12      29.90S HX  93           
POHNPEI AP     CLOUDY    88  77  70 NW8       29.88R HX 100           
POHNPEI WSO    PTSUNNY   88  75  66 SW7       29.92R HX  97           
KOSRAE AP      CLOUDY    86  77  74 SW14      29.87F HX  97           

$$

PMZ181-220000-
REPUBLIC OF THE MARSHALL ISLANDS-
  
CITY           SKY/WX    TMP DP  RH WIND       PRES   REMARKS
KWAJALEIN AP   MOSUNNY   79  75  89 NW8       29.90S                  
MAJURO AP      NOT AVBL                                               
MAJURO WSO     PTSUNNY   84  75  74 W15       29.88S HX  92           

$$